Location: Newark
(34.1333°N, 7.9667°W)
Time: 01:18:33
(UTC+00:00)

Transit 2A - Pass Details

Date: 14 June 2021
Orbit: 598 x 960 km, 66.7° (Epoch: 29 July)

Event Time Altitude Azimuth Distance (km) Brightness Sun altitude
Rises 02:24:30 0° 350° (N) 3,055 9.8 -26.7°
Reaches altitude 10° 02:27:19 10° 7° (N) 2,199 9.2 -26.4°
Maximum altitude 02:31:02 20° 55° (NE) 1,678 8.4 -26.0°
Drops below altitude 10° 02:35:00 10° 102° (ESE) 2,371 8.7 -25.6°
Sets 02:38:10 0° 119° (ESE) 3,372 9.4 -25.3°
